DW7003 Weather Reports


time (UTC)temp
C
wind
direction
speed
KPH
gust
KPH
rain 1hr
cm
rain 24hr
cm
rain mn
cm
humidity
%
barometer
mb
20260504194504 24 99 3.2 17.7 0.00 0.00 0.00 31 1010.1
20260504193002 24 136 0.0 14.5 0.00 0.00 0.00 32 1010.1
20260504191559 24 42 0.0 11.3 0.00 0.00 0.00 31 1010.4
20260504190107 23 115 0.0 17.7 0.00 0.00 0.00 35 1010.7
20260504184554 23 140 1.6 16.1 0.00 0.00 0.00 33 1010.9
20260504183058 23 126 3.2 17.7 0.00 0.00 0.00 32 1011.1
20260504181549 23 54 3.2 12.9 0.00 0.00 0.00 33 1011.3
20260504180122 22 130 0.0 17.7 0.00 0.00 0.00 36 1011.4
20260504174545 22 106 0.0 16.1 0.00 0.00 0.00 33 1011.6
20260504173043 22 141 0.0 19.3 0.00 0.00 0.00 36 1011.8
20260504171541 22 81 0.0 11.3 0.00 0.00 0.00 33 1012.0
20260504081558 8 125 0.0 0.0 0.00 0.00 0.00 63 1015.1
20260504044539 7 125 0.0 0.0 0.00 0.00 0.00 63 1014.2
20260504043043 7 125 0.0 0.0 0.00 0.00 0.00 63 1014.1
20260504041534 8 125 0.0 0.0 0.00 0.00 0.00 60 1014.0
20260504040028 8 125 0.0 0.0 0.00 0.00 0.00 61 1013.9
20260504034527 8 125 0.0 0.0 0.00 0.00 0.00 59 1013.7
20260504033026 8 125 0.0 0.0 0.00 0.00 0.00 55 1013.6
20260504031526 9 125 0.0 0.0 0.00 0.00 0.00 57 1013.6
20260504030024 10 125 0.0 0.0 0.00 0.00 0.00 52 1013.5
20260504024524 10 125 0.0 0.0 0.00 0.00 0.00 52 1013.5
20260504023023 10 125 0.0 0.0 0.00 0.00 0.00 52 1013.6
20260504021523 10 125 0.0 0.0 0.00 0.00 0.00 53 1013.5
20260504020022 10 125 0.0 0.0 0.00 0.00 0.00 55 1013.5
20260504014526 10 125 0.0 0.0 0.00 0.00 0.00 57 1013.5
20260504013021 10 125 0.0 0.0 0.00 0.00 0.00 55 1013.3
20260504011518 11 125 0.0 0.0 0.00 0.00 0.00 55 1013.1
20260504010016 11 125 0.0 0.0 0.00 0.00 0.00 53 1012.8
20260504004518 12 125 0.0 0.0 0.00 0.00 0.00 49 1012.6
20260504003016 12 125 0.0 0.0 0.00 0.00 0.00 47 1012.4
20260504001515 13 125 0.0 0.0 0.00 0.00 0.00 43 1012.2
20260504000015 13 125 0.0 0.0 0.00 0.00 0.00 40 1012.1
20260503234519 14 125 0.0 0.0 0.00 0.00 0.00 38 1012.0
20260503233013 14 125 0.0 0.0 0.00 0.00 0.00 36 1011.8
20260503231516 15 126 0.0 11.3 0.00 0.00 0.00 34 1011.8
20260503230015 15 86 0.0 3.2 0.00 0.00 0.00 34 1011.6
20260503224513 15 82 0.0 4.8 0.00 0.00 0.00 32 1011.6
20260503223013 15 330 0.0 3.2 0.00 0.00 0.00 33 1011.5
20260503221511 15 55 0.0 4.8 0.00 0.00 0.00 32 1011.4
20260503220011 15 44 0.0 4.8 0.00 0.00 0.00 32 1011.4
20260503214532 15 28 1.6 9.7 0.00 0.00 0.00 31 1011.5
20260503213010 15 86 0.0 9.7 0.00 0.00 0.00 32 1011.3
20260503211510 15 143 0.0 9.7 0.00 0.00 0.00 34 1011.3
20260503210010 15 9 0.0 14.5 0.00 0.00 0.00 34 1011.3
20260503204507 15 53 1.6 9.7 0.00 0.00 0.00 32 1011.2
20260503203007 15 292 0.0 12.9 0.00 0.00 0.00 32 1011.0
20260503201507 15 148 1.6 20.9 0.00 0.00 0.00 34 1011.2
20260503200006 15 40 0.0 6.4 0.00 0.00 0.00 34 1011.2